{"data":{"norad_id":65556,"intl_designator":"2025-201G","name":"GEESAT-5 07","alt_names":[],"object_type":"PAYLOAD","status":"ACTIVE","operator":null,"country":"PRC","launch_date":"2025-09-08","launch_site_code":"YSLA","launch_vehicle":null,"mission":null,"orbit_class":"UNKNOWN","rcs_meters":null,"size_class":null,"mass_kg":null,"dimensions":null,"purposes":[],"wikipedia_slug":null,"has_3d_model":false,"image_url":null,"decayed_at":null,"tle_current":{"epoch":"2026-05-24T23:57:27.724320Z","epoch_age_seconds":78723,"freshness":"FRESH","line1":"1 65556U 25201G   26144.99823755  .00001192  00000+0  16833-3 0  9998","line2":"2 65556  49.9869 146.7007 0013546 225.5282 134.4549 14.84100437 38355","mean_motion":14.84100437,"eccentricity":0.0013546,"inclination_deg":49.9869,"raan_deg":146.7007,"arg_perigee_deg":225.5282,"mean_anomaly_deg":134.4549,"bstar":0.00016833,"rev_number":3835,"period_min":97.028473552023,"perigee_km":606.93604298256,"apogee_km":625.88567203813,"semimajor_km":6994.5478575103,"source":"CELESTRAK","updated_at":"2026-05-25T13:38:05.515722Z"}}}